Location: Morlupo
(42.1333°N, 12.5000°E)
Time: 04:27:21
(UTC+00:00)

HJ-1C - Pass Details

Date: 25 January 2021
Orbit: 428 x 442 km, 97.1° (Epoch: 03 March)

Event Time Altitude Azimuth Distance (km) Brightness Sun altitude
Exits shadow 18:13:42 14° 350° (N) 1,366 5.9 -21.8°
Drops below altitude 10° 18:14:15 10° 350° (N) 1,595 6.2 -21.9°
Sets 18:16:14 0° 350° (N) 2,448 7.2 -22.3°
